This is the latest recevied weather packets stored in our database for station/object KG7FOQ-13. If no packets are shown the sender has not sent any weather packets the latest 1 day(s).
| Time | Temp. | Humidity | Pressure | Rain* | Wind** | Luminosity | Snow |
|---|---|---|---|---|---|---|---|
| 1778031245 | 20.56° C | 31% | 1006.1 hPa | 0 mm | 7.6 m/s, 266° | - | - |
| 1778030944 | 20.56° C | 29% | 1006.2 hPa | 0 mm | 7.15 m/s, 259° | - | - |
| 1778030644 | 20.56° C | 29% | 1006.5 hPa | 0 mm | 6.26 m/s, 291° | - | - |
| 1778030343 | 20.56° C | 31% | 1006.5 hPa | 0 mm | 1.34 m/s, 240° | - | - |
| 1778030043 | 20.56° C | 30% | 1006.5 hPa | 0 mm | 1.34 m/s, 221° | - | - |
| 1778029742 | 20.56° C | 31% | 1006.7 hPa | 0 mm | 0.45 m/s, 245° | - | - |
| 1778029442 | 20.56° C | 31% | 1006.6 hPa | 0 mm | 0.45 m/s, 226° | - | - |
| 1778029140 | 20.56° C | 31% | 1006.7 hPa | 0 mm | 0.89 m/s, 245° | - | - |
| 1778028840 | 20.56° C | 30% | 1006.7 hPa | 0 mm | 2.24 m/s, 249° | - | - |
| 1778028238 | 20.56° C | 30% | 1006.8 hPa | 0 mm | 0.89 m/s, 167° | - | - |
| 1778027938 | 20.56° C | 29% | 1006.8 hPa | 0 mm | 2.24 m/s, 205° | - | - |
| 1778027036 | 20.56° C | 30% | 1007.1 hPa | 0 mm | 3.13 m/s, 266° | - | - |
| 1778026736 | 20.56° C | 29% | 1007.1 hPa | 0 mm | 1.79 m/s, 266° | - | - |
| 1778026435 | 20.56° C | 28% | 1007.4 hPa | 0 mm | 0.89 m/s, 293° | - | - |
| 1778026135 | 20.56° C | 28% | 1007.3 hPa | 0 mm | 0 m/s | - | - |
| 1778025833 | 20.56° C | 28% | 1007.4 hPa | 0 mm | 0.89 m/s, 330° | - | - |
| 1778025533 | 20.56° C | 29% | 1007.4 hPa | 0 mm | 4.02 m/s, 295° | - | - |
| 1778025232 | 20° C | 29% | 1007.4 hPa | 0 mm | 2.68 m/s, 283° | - | - |
| 1778024932 | 20° C | 28% | 1007.4 hPa | 0 mm | 4.02 m/s, 240° | - | - |
| 1778024629 | 20° C | 27% | 1007.6 hPa | 0 mm | 3.13 m/s, 291° | - | - |
| 1778024329 | 20° C | 27% | 1007.6 hPa | 0 mm | 4.02 m/s, 263° | - | - |
| 1778024028 | 20° C | 28% | 1007.7 hPa | 0 mm | 4.92 m/s, 257° | - | - |
| 1778023427 | 20° C | 27% | 1007.6 hPa | 0 mm | 6.26 m/s, 291° | - | - |
| 1778023127 | 20° C | 27% | 1007.7 hPa | 0 mm | 4.47 m/s, 176° | - | - |
| 1778022826 | 20° C | 27% | 1008 hPa | 0 mm | 4.47 m/s, 274° | - | - |
* Rain latest hour (hover to see other rain measurements)
** Current wind speed in m/s (hover to see current wind gust speed)